[[{"header":{"parameterUnit":"m.s-1","parameterCategory":1,"la1":30.2991,"la2":30.254,"lo1":-89.0895,"lo2":-89.0444,"dy":0.0017,"dx":0.0017,"nx":28,"ny":28,"refTime":"2025-02-28T09:00:00:Z","depth":0,"parameterNumber":2,"parameterNumberName":"U-component_of_WINDS"},"data":[0,0,0,0,0,0,0,0,0,0,0,0,0,0,0,0,0,0,0,0,0,0,0,0,0,0,0,0,0,0,0,0,0,0,0,0,0,0,0,0,0,0,0,0,0,0,0,0,0,0,0,0,0,0,0,0,0,0,0.535,0.5351,0,0.5392,0.5393,0.5393,0.5404,0.5404,0.5403,0.5403,0.5446,0.5447,0.5448,0,0,0,0,0,0,0,0,0,0,0,0,0,0.528,0.5281,0.535,0.5351,0.5351,0.5392,0.5393,0.5393,0.5404,0.5404,0.5403,0.5403,0.5445,0.5447,0.5448,0,0,0,0,0,0,0,0,0,0,0,0,0,0.5315,0.5282,0.535,0.5361,0.5363,0.5392,0.5393,0.5393,0.5404,0.5404,0.5403,0.5403,0.5445,0.5447,0.5449,0.5469,0,0,0.5455,0.5456,0,0,0,0,0,0,0,0,0.5313,0.5318,0.5359,0.5361,0.5362,0.5392,0.5384,0.5419,0.5404,0.5388,0.5403,0.5403,0.5428,0.5432,0.544,0.5471,0.5473,0.5455,0.5456,0.5457,0.5458,0,0,0,0,0,0,0,0.5311,0.5316,0.5367,0.536,0.5362,0.5365,0.5369,0.539,0.541,0.539,0.5391,0.5395,0.5429,0.5438,0.5441,0.5474,0.5455,0.5457,0.5458,0.5459,0.5526,0.5527,0,0,0,0,0,0,0.5306,0.5314,0.5365,0.5368,0.5336,0.5366,0.5371,0.5383,0.541,0.5413,0.5396,0.5396,0.5435,0.5439,0.5443,0.547,0.5457,0.5459,0.546,0.5526,0.5526,0.5527,0,0,0,0,0,0,0.5305,0.5311,0.5364,0.5341,0.5348,0.5368,0.5381,0.5384,0.5393,0.5414,0.5418,0.5402,0.5435,0.544,0.5463,0.5472,0.546,0.5462,0.5525,0.5526,0.5527,0.5524,0,0,0,0,0,0,0.5303,0.531,0.5318,0.5341,0.5349,0.5383,0.5381,0.5385,0.5397,0.5398,0.5421,0.5424,0.5435,0.546,0.5465,0.5474,0.5464,0.5524,0.5525,0.5526,0.5523,0.5525,0.5526,0,0,0,0,0,0.53,0.5315,0.5318,0.5324,0.5359,0.5383,0.5388,0.54,0.5398,0.5406,0.542,0.5423,0.547,0.5462,0.5468,0.5478,0.5524,0.5525,0.5526,0.5523,0.5524,0.5526,0,0,0,0,0,0,0.5291,0.5318,0.5322,0.5344,0.5362,0.5385,0.5395,0.5401,0.5419,0.5418,0.5433,0.5438,0.5461,0.5472,0.5463,0.5501,0.5497,0.55,0.5492,0.5494,0.5495,0.5492,0.5465,0,0,0,0,0,0.5291,0.5308,0.5331,0.5349,0.5358,0.5375,0.5386,0.5394,0.5412,0.542,0.5435,0.5453,0.5472,0.5483,0.5502,0.5525,0.5531,0.5535,0.5536,0.5537,0.5539,0.5554,0.5557,0.5531,0.5531,0.5531,0,0,0.5293,0.531,0.5319,0.5348,0.5362,0.538,0.5381,0.5399,0.5413,0.5422,0.5445,0.5458,0.5478,0.5502,0.5514,0.5512,0.5548,0.5539,0.5539,0.5541,0.5556,0.5558,0.556,0.5532,0.5532,0.5532,0,0,0.5304,0.5318,0.5336,0.535,0.5372,0.5384,0.5389,0.5412,0.542,0.5444,0.5452,0.5469,0.55,0.5515,0.5527,0.5547,0.5552,0.5553,0.5559,0.5573,0.5575,0.5577,0.5585,0.5588,0.5555,0.5555,0.5555,0,0.5303,0.533,0.5344,0.5362,0.5375,0.5385,0.5404,0.5417,0.5444,0.5453,0.5451,0.5493,0.5507,0.5536,0.5541,0.555,0.5556,0.555,0.5574,0.5576,0.5578,0.5586,0.5589,0.5555,0.5555,0.5555,0.5555,0,0.5328,0.5347,0.5358,0.5385,0.5399,0.5417,0.5434,0.5447,0.5455,0.5467,0.5492,0.5511,0.5534,0.5541,0.5548,0.5571,0.557,0.5571,0.5568,0.558,0.5588,0.5591,0.5555,0.5555,0.5555,0.5555,0,0,0.5333,0.5369,0.5373,0.5386,0.5412,0.5427,0.5446,0.547,0.5481,0.55,0.5517,0.5545,0.5547,0.556,0.5569,0.5582,0.5599,0.5582,0.5583,0.5585,0.5627,0.5626,0.5629,0.5602,0.5603,0.5603,0.5625,0,0.5349,0.5384,0.5398,0.5426,0.5445,0.5456,0.5473,0.5492,0.5504,0.5522,0.5536,0.5556,0.5557,0.5565,0.5578,0.5594,0.5607,0.5592,0.5619,0.562,0.5614,0.5633,0.5632,0.5652,0.5629,0.5629,0.5629,0,0.537,0.5391,0.5421,0.5447,0.5455,0.5471,0.5494,0.5511,0.5533,0.5541,0.5558,0.5567,0.5589,0.5584,0.5615,0.5605,0.5617,0.5627,0.5628,0.5631,0.5625,0.5637,0.5658,0.5662,0.5634,0.5634,0.5633,0,0.5372,0.5407,0.543,0.5441,0.5471,0.5482,0.5495,0.5517,0.553,0.5551,0.5561,0.5583,0.5596,0.5614,0.5629,0.5625,0.566,0.5656,0.5668,0.5668,0.5674,0.5674,0.5698,0.5682,0.5682,0.5682,0.5682,0,0.5388,0.5406,0.5432,0.5446,0.5468,0.5484,0.5506,0.552,0.5539,0.5557,0.5568,0.5585,0.5604,0.5624,0.5636,0.5661,0.5666,0.5674,0.5677,0.5673,0.5672,0.5681,0.568,0.5683,0.5682,0.5682,0.5682,0,0.5393,0.5411,0.5437,0.5464,0.5472,0.5487,0.5511,0.5526,0.554,0.5562,0.5569,0.5591,0.5615,0.5632,0.5662,0.5671,0.5698,0.5701,0.569,0.5692,0.5703,0.5702,0.5734,0.574,0.5719,0.5719,0.572,0,0.5402,0.5417,0.5446,0.5459,0.5473,0.5493,0.5508,0.5525,0.554,0.5568,0.558,0.5604,0.5625,0.5663,0.5682,0.5706,0.571,0.572,0.5713,0.571,0.5711,0.571,0.5712,0.572,0.572,0.572,0.572,0,0.5416,0.5424,0.5445,0.5469,0.5487,0.5506,0.5527,0.5537,0.5558,0.5574,0.5599,0.5616,0.5648,0.5673,0.5699,0.5713,0.5721,0.5723,0.5727,0.5723,0.5717,0.5721,0.5693,0.5721,0.5721,0.5721,0.5721,0.5721,0.5423,0.5438,0.5461,0.5485,0.5502,0.5521,0.5537,0.5554,0.5575,0.5603,0.5612,0.5638,0.5662,0.5698,0.5713,0.5734,0.5734,0.5739,0.5741,0.5742,0.5743,0.5713,0.5739,0.5739,0.5739,0.5739,0.5739,0,0.5439,0.5455,0.5476,0.5505,0.5523,0.553,0.5553,0.5568,0.5591,0.5612,0.5633,0.5663,0.5688,0.571,0.5736,0.5749,0.5753,0.5755,0.5754,0.5758,0.5741,0.5735,0.5751,0.5751,0.5751,0.5751,0.5751,0.5751,0.5449,0.5474,0.5486,0.552,0.5537,0.5562,0.5575,0.5594,0.5611,0.5644,0.5665,0.5679,0.5701,0.573,0.5753,0.5759,0.5769,0.577,0.5777,0.576,0.5759,0.5757,0.5752,0.5772,0.5772,0.5792,0.5792,0.5792]},{"header":{"parameterUnit":"m.s-1","parameterCategory":1,"la1":30.2991,"la2":30.254,"lo1":-89.0895,"lo2":-89.0444,"dy":0.0017,"dx":0.0017,"nx":28,"ny":28,"refTime":"2025-02-28T09:00:00:Z","depth":0,"parameterNumber":3,"parameterNumberName":"V-component_of_WINDS"},"data":[0,0,0,0,0,0,0,0,0,0,0,0,0,0,0,0,0,0,0,0,0,0,0,0,0,0,0,0,0,0,0,0,0,0,0,0,0,0,0,0,0,0,0,0,0,0,0,0,0,0,0,0,0,0,0,0,0,0,-4.3844,-4.3844,0,-4.3905,-4.3906,-4.3907,-4.3864,-4.3862,-4.386,-4.3858,-4.3918,-4.3922,-4.3925,0,0,0,0,0,0,0,0,0,0,0,0,0,-4.3688,-4.3691,-4.3844,-4.3845,-4.3845,-4.3905,-4.3906,-4.3907,-4.3864,-4.3862,-4.386,-4.3857,-4.3917,-4.3921,-4.3925,0,0,0,0,0,0,0,0,0,0,0,0,0,-4.3753,-4.3692,-4.3844,-4.3831,-4.3831,-4.3905,-4.3906,-4.3907,-4.3865,-4.3862,-4.3859,-4.3856,-4.3916,-4.3921,-4.3926,-4.4014,0,0,-4.3941,-4.3943,0,0,0,0,0,0,0,0,-4.3749,-4.3759,-4.3832,-4.3832,-4.3832,-4.3874,-4.3873,-4.3943,-4.3865,-4.3852,-4.3858,-4.3855,-4.3906,-4.3911,-4.3929,-4.4017,-4.402,-4.3942,-4.3945,-4.3947,-4.3948,0,0,0,0,0,0,0,-4.3745,-4.3756,-4.3868,-4.3833,-4.3833,-4.3822,-4.3828,-4.3886,-4.3894,-4.3853,-4.385,-4.3858,-4.3905,-4.3924,-4.393,-4.4021,-4.3942,-4.3946,-4.3949,-4.3951,-4.4186,-4.4189,0,0,0,0,0,0,-4.3742,-4.3752,-4.3866,-4.387,-4.3783,-4.3827,-4.3834,-4.3863,-4.3893,-4.3895,-4.386,-4.3856,-4.3917,-4.3924,-4.3932,-4.4039,-4.3947,-4.3952,-4.3955,-4.4182,-4.4186,-4.419,0,0,0,0,0,0,-4.3739,-4.3752,-4.3863,-4.381,-4.3824,-4.3833,-4.3866,-4.3866,-4.3885,-4.3899,-4.39,-4.3879,-4.3915,-4.3925,-4.3995,-4.404,-4.3954,-4.3959,-4.4179,-4.4184,-4.4188,-4.4252,0,0,0,0,0,0,-4.3734,-4.3752,-4.3786,-4.3812,-4.3827,-4.3926,-4.3869,-4.3869,-4.3895,-4.3889,-4.3916,-4.3918,-4.3914,-4.3987,-4.4,-4.4046,-4.3963,-4.4175,-4.4181,-4.4186,-4.4246,-4.4258,-4.4269,0,0,0,0,0,-4.3729,-4.38,-4.3788,-4.3802,-4.387,-4.3929,-4.3937,-4.3931,-4.3898,-4.3933,-4.3941,-4.3917,-4.4033,-4.3995,-4.4008,-4.4056,-4.4172,-4.4179,-4.4186,-4.4241,-4.4256,-4.4269,0,0,0,0,0,0,-4.3778,-4.3803,-4.379,-4.3872,-4.3899,-4.3921,-4.3964,-4.3947,-4.3983,-4.3977,-4.3967,-4.3973,-4.4047,-4.4058,-4.4015,-4.4144,-4.4097,-4.4107,-4.4134,-4.4149,-4.416,-4.4156,-4.3967,0,0,0,0,0,-4.3799,-4.3845,-4.3864,-4.3935,-4.3949,-4.3955,-4.398,-4.3973,-4.4,-4.4011,-4.4025,-4.4051,-4.4094,-4.4122,-4.4161,-4.4247,-4.4253,-4.4287,-4.4299,-4.4308,-4.4317,-4.4364,-4.438,-4.4213,-4.4213,-4.4213,0,0,-4.3842,-4.3861,-4.3891,-4.3946,-4.3965,-4.4013,-4.3964,-4.4017,-4.4052,-4.4019,-4.4086,-4.4097,-4.4126,-4.4205,-4.424,-4.4216,-4.4365,-4.4317,-4.4325,-4.4329,-4.4373,-4.4389,-4.4403,-4.4218,-4.4217,-4.4216,0,0,-4.3944,-4.3963,-4.4025,-4.4046,-4.4078,-4.4081,-4.4096,-4.4122,-4.4128,-4.4196,-4.4172,-4.4214,-4.4287,-4.4308,-4.4329,-4.4442,-4.4421,-4.4455,-4.4515,-4.4561,-4.4575,-4.4586,-4.4627,-4.4642,-4.4463,-4.4464,-4.4464,0,-4.3993,-4.4065,-4.4058,-4.4113,-4.4138,-4.4111,-4.4174,-4.4194,-4.4237,-4.4254,-4.4228,-4.432,-4.4337,-4.4421,-4.4449,-4.4466,-4.4483,-4.4451,-4.4573,-4.4585,-4.4596,-4.4634,-4.465,-4.4467,-4.4467,-4.4467,-4.4466,0,-4.4124,-4.4174,-4.422,-4.4263,-4.4293,-4.4351,-4.4353,-4.4384,-4.4375,-4.4381,-4.4451,-4.4471,-4.4515,-4.4534,-4.4525,-4.4617,-4.4602,-4.4575,-4.4527,-4.4616,-4.4652,-4.4667,-4.4473,-4.4472,-4.4471,-4.447,0,0,-4.4258,-4.4299,-4.4315,-4.4335,-4.4369,-4.4407,-4.4464,-4.4508,-4.4535,-4.4566,-4.4613,-4.4676,-4.4652,-4.4676,-4.4669,-4.4709,-4.4798,-4.4677,-4.4678,-4.47,-4.4902,-4.4922,-4.494,-4.4785,-4.4787,-4.479,-4.4899,0,-4.4363,-4.4464,-4.446,-4.4554,-4.4601,-4.4577,-4.4626,-4.4652,-4.466,-4.47,-4.4707,-4.4753,-4.4716,-4.4731,-4.477,-4.4779,-4.4839,-4.4771,-4.4829,-4.4831,-4.4823,-4.4958,-4.498,-4.5083,-4.4913,-4.4916,-4.4917,0,-4.4499,-4.4536,-4.4635,-4.4662,-4.4682,-4.4727,-4.4767,-4.4806,-4.4835,-4.4837,-4.4865,-4.4852,-4.4909,-4.486,-4.494,-4.4894,-4.4917,-4.4925,-4.4929,-4.4935,-4.488,-4.4968,-4.5115,-4.5131,-4.494,-4.4938,-4.4936,0,-4.4588,-4.4662,-4.4731,-4.4749,-4.4782,-4.4815,-4.483,-4.4856,-4.4883,-4.4918,-4.4936,-4.4977,-4.5,-4.5032,-4.503,-4.4994,-4.5111,-4.5061,-4.5114,-4.5115,-4.514,-4.5139,-4.5294,-4.5154,-4.5154,-4.5154,-4.5154,0,-4.4706,-4.4767,-4.4772,-4.4814,-4.4883,-4.4878,-4.4946,-4.4957,-4.4981,-4.5025,-4.5006,-4.5048,-4.5043,-4.5085,-4.5084,-4.515,-4.516,-4.5164,-4.5163,-4.5166,-4.5166,-4.5182,-4.5175,-4.5158,-4.5157,-4.5156,-4.5156,0,-4.4817,-4.4822,-4.4896,-4.4923,-4.4931,-4.498,-4.5003,-4.5043,-4.5049,-4.5105,-4.5118,-4.5128,-4.5176,-4.5178,-4.5233,-4.5232,-4.5314,-4.5304,-4.5305,-4.5303,-4.5356,-4.5352,-4.5527,-4.5551,-4.5396,-4.5397,-4.5398,0,-4.4892,-4.4939,-4.4971,-4.5,-4.5018,-4.5064,-4.5093,-4.509,-4.512,-4.5157,-4.5193,-4.524,-4.5277,-4.5356,-4.5367,-4.5409,-4.5401,-4.546,-4.5407,-4.541,-4.5403,-4.5401,-4.5406,-4.547,-4.5472,-4.5474,-4.5475,0,-4.5024,-4.5025,-4.5067,-4.5111,-4.5145,-4.5179,-4.521,-4.5235,-4.5235,-4.527,-4.532,-4.535,-4.5407,-4.5454,-4.5496,-4.551,-4.5493,-4.5491,-4.5506,-4.551,-4.5508,-4.5511,-4.5333,-4.5487,-4.5486,-4.5485,-4.5484,-4.5484,-4.512,-4.5161,-4.5191,-4.5239,-4.5262,-4.5293,-4.5332,-4.5344,-4.5386,-4.5434,-4.5429,-4.5485,-4.5513,-4.5568,-4.5586,-4.5629,-4.5609,-4.563,-4.5635,-4.5641,-4.5647,-4.5501,-4.5637,-4.5636,-4.5636,-4.5636,-4.5635,0,-4.5252,-4.5271,-4.5315,-4.536,-4.5398,-4.5379,-4.5413,-4.5446,-4.5496,-4.5524,-4.5562,-4.562,-4.5666,-4.5682,-4.5726,-4.5758,-4.5751,-4.577,-4.5768,-4.5772,-4.5662,-4.5646,-4.5775,-4.5775,-4.5775,-4.5775,-4.5775,-4.5775,-4.5326,-4.5395,-4.54,-4.5481,-4.5498,-4.5554,-4.5575,-4.5603,-4.5626,-4.5692,-4.5731,-4.5741,-4.5765,-4.5811,-4.5852,-4.5855,-4.5873,-4.5895,-4.5895,-4.5793,-4.5779,-4.5766,-4.575,-4.5899,-4.5899,-4.6001,-4.6002,-4.6003]}]]